[[{"header":{"parameterUnit":"m.s-1","parameterCategory":1,"la1":30.2991,"la2":30.254,"lo1":-89.0895,"lo2":-89.0444,"dy":0.0017,"dx":0.0017,"nx":28,"ny":28,"refTime":"2025-04-15T09:00:00:Z","depth":0,"parameterNumber":2,"parameterNumberName":"U-component_of_WINDS"},"data":[0,0,0,0,0,0,0,0,0,0,0,0,0,0,0,0,0,0,0,0,0,0,0,0,0,0,0,0,0,0,0,0,0,0,0,0,0,0,0,0,0,0,0,0,0,0,0,0,0,0,0,0,0,0,0,0,0,0,4.3227,4.3229,0,4.3457,4.346,4.3463,4.3401,4.3397,4.3392,4.3388,4.3633,4.3643,4.3654,0,0,0,0,0,0,0,0,0,0,0,0,0,4.274,4.275,4.3226,4.3229,4.3232,4.3457,4.346,4.3463,4.3402,4.3397,4.3391,4.3386,4.3629,4.3642,4.3655,0,0,0,0,0,0,0,0,0,0,0,0,0,4.296,4.2753,4.3226,4.3229,4.3231,4.3456,4.346,4.3464,4.3403,4.3396,4.3389,4.3383,4.3625,4.3641,4.3657,4.3896,0,0,4.3707,4.3714,0,0,0,0,0,0,0,0,4.2947,4.2978,4.3225,4.3229,4.3232,4.3393,4.3378,4.3609,4.3405,4.3338,4.3388,4.338,4.3559,4.3581,4.3639,4.3908,4.3918,4.3708,4.3718,4.3725,4.373,0,0,0,0,0,0,0,4.2932,4.2967,4.3318,4.3229,4.3233,4.3221,4.3244,4.3422,4.3485,4.3344,4.334,4.3367,4.356,4.3624,4.3645,4.3922,4.3708,4.3722,4.3732,4.3738,4.4398,4.4405,0,0,0,0,0,0,4.2913,4.2955,4.3311,4.3325,4.3069,4.3235,4.3261,4.3349,4.3483,4.3497,4.3373,4.3364,4.36,4.3626,4.3653,4.3942,4.3725,4.374,4.3749,4.439,4.44,4.4408,0,0,0,0,0,0,4.2903,4.2945,4.3301,4.3139,4.3183,4.3251,4.3349,4.3357,4.3421,4.3505,4.3517,4.3426,4.3595,4.363,4.3836,4.395,4.3747,4.3762,4.4381,4.4393,4.4404,4.4522,0,0,0,0,0,0,4.2889,4.2942,4.3032,4.3141,4.3192,4.3478,4.3356,4.3366,4.3448,4.3438,4.3558,4.3572,4.3592,4.3812,4.3852,4.3968,4.3775,4.4371,4.4386,4.44,4.4508,4.4536,4.456,0,0,0,0,0,4.2872,4.3058,4.3037,4.308,4.3306,4.3485,4.3514,4.3532,4.3457,4.3549,4.3603,4.3568,4.393,4.3833,4.3878,4.4001,4.4364,4.4382,4.4399,4.4497,4.4531,4.456,0,0,0,0,0,0,4.2964,4.3073,4.305,4.3277,4.3372,4.3474,4.3591,4.3567,4.3688,4.3674,4.3693,4.372,4.393,4.3986,4.3876,4.424,4.4137,4.4164,4.4196,4.4229,4.4254,4.4237,4.3788,0,0,0,0,0,4.301,4.3144,4.3233,4.3424,4.3472,4.3524,4.3602,4.3607,4.3707,4.3748,4.3817,4.3918,4.4055,4.4145,4.4275,4.4515,4.4541,4.4622,4.4648,4.4669,4.4693,4.4825,4.4862,4.4465,4.4465,4.4465,0,0,4.3108,4.3184,4.3268,4.3444,4.3518,4.3659,4.3558,4.3711,4.3816,4.3772,4.397,4.4024,4.4138,4.4362,4.4464,4.4415,4.4808,4.4691,4.4707,4.472,4.4846,4.4884,4.4917,4.4477,4.4475,4.4473,0,0,4.3358,4.3428,4.3595,4.367,4.3782,4.3815,4.3855,4.3961,4.3994,4.4192,4.4162,4.4288,4.4523,4.4605,4.4678,4.4957,4.4929,4.4999,4.5136,4.5264,4.5295,4.5323,4.5423,4.5459,4.5022,4.5023,4.5023,0,4.3466,4.3674,4.3685,4.384,4.3919,4.3882,4.4053,4.4126,4.4277,4.4333,4.4275,4.4568,4.4642,4.4885,4.4952,4.5012,4.506,4.4986,4.5289,4.5317,4.5343,4.5439,4.5477,4.5031,4.503,4.5029,4.5028,0,4.3802,4.3947,4.4069,4.4211,4.4304,4.4466,4.4503,4.4596,4.4593,4.4632,4.4834,4.4921,4.5068,4.5126,4.5126,4.5369,4.5335,4.5283,4.518,4.5389,4.5479,4.5516,4.5042,4.5039,4.5037,4.5035,0,0,4.4119,4.4263,4.4308,4.4372,4.4492,4.4605,4.4766,4.4907,4.4987,4.5091,4.5228,4.5426,4.5378,4.5461,4.5469,4.5581,4.5797,4.5516,4.5519,4.5566,4.6072,4.6111,4.6153,4.5779,4.5786,4.5791,4.6062,0,4.438,4.466,4.4674,4.493,4.5064,4.503,4.517,4.5261,4.5301,4.5423,4.5469,4.5609,4.5535,4.5584,4.5693,4.5748,4.59,4.5728,4.5908,4.5915,4.5882,4.6201,4.6243,4.6495,4.6098,4.6104,4.6108,0,4.4723,4.4834,4.5103,4.5202,4.526,4.5385,4.5515,4.5631,4.5733,4.5754,4.5845,4.5837,4.6004,4.5894,4.6125,4.6008,4.6082,4.612,4.613,4.6149,4.6025,4.6229,4.6575,4.6614,4.6164,4.616,4.6156,0,4.4928,4.5146,4.5334,4.539,4.5511,4.56,4.5655,4.575,4.5833,4.5947,4.6002,4.6135,4.6209,4.6313,4.6341,4.6258,4.6573,4.6465,4.6597,4.6597,4.6667,4.6662,4.7031,4.6712,4.6712,4.6711,4.671,0,4.5219,4.5385,4.5427,4.5544,4.5729,4.5743,4.5927,4.5977,4.6061,4.6188,4.6167,4.6287,4.6316,4.6443,4.6467,4.6655,4.6688,4.6712,4.6717,4.6715,4.6712,4.6765,4.6749,4.6721,4.6719,4.6717,4.6715,0,4.5481,4.5515,4.5719,4.5815,4.5844,4.5976,4.606,4.6173,4.6209,4.637,4.6409,4.6468,4.6615,4.6653,4.683,4.6846,4.7068,4.7056,4.7033,4.7033,4.7164,4.7151,4.7581,4.7638,4.7281,4.7284,4.7287,0,4.5665,4.5791,4.59,4.5982,4.604,4.6173,4.6256,4.6276,4.6364,4.6489,4.6587,4.6731,4.6847,4.7085,4.7145,4.7281,4.7272,4.7413,4.7293,4.7287,4.7276,4.7268,4.7281,4.7437,4.7441,4.7444,4.7446,0,4.5988,4.5999,4.6119,4.6246,4.6346,4.6447,4.6544,4.6613,4.6646,4.6747,4.6896,4.6986,4.7164,4.7309,4.7444,4.7504,4.7482,4.7483,4.7521,4.7521,4.7503,4.7516,4.7097,4.7474,4.7471,4.7469,4.7467,4.7466,4.6218,4.6328,4.6422,4.6557,4.6631,4.6721,4.6831,4.688,4.7004,4.7149,4.7153,4.7315,4.7413,4.7593,4.7659,4.7788,4.7746,4.7801,4.7815,4.7829,4.784,4.7481,4.7813,4.7812,4.7811,4.7811,4.781,0,4.6542,4.6599,4.6722,4.6857,4.6964,4.6929,4.7034,4.7126,4.7268,4.736,4.7474,4.7645,4.7784,4.7854,4.7992,4.8081,4.8075,4.8117,4.8112,4.8126,4.787,4.7823,4.812,4.812,4.812,4.812,4.812,4.812,4.6722,4.6907,4.6929,4.715,4.7207,4.7363,4.7427,4.7511,4.7584,4.7774,4.7888,4.7932,4.8016,4.8159,4.8286,4.8303,4.8356,4.8404,4.8416,4.8176,4.8144,4.8114,4.8071,4.8415,4.8415,4.8662,4.8664,4.8666]},{"header":{"parameterUnit":"m.s-1","parameterCategory":1,"la1":30.2991,"la2":30.254,"lo1":-89.0895,"lo2":-89.0444,"dy":0.0017,"dx":0.0017,"nx":28,"ny":28,"refTime":"2025-04-15T09:00:00:Z","depth":0,"parameterNumber":3,"parameterNumberName":"V-component_of_WINDS"},"data":[0,0,0,0,0,0,0,0,0,0,0,0,0,0,0,0,0,0,0,0,0,0,0,0,0,0,0,0,0,0,0,0,0,0,0,0,0,0,0,0,0,0,0,0,0,0,0,0,0,0,0,0,0,0,0,0,0,0,0.8678,0.8678,0,0.8706,0.8707,0.8707,0.8681,0.8679,0.8678,0.8677,0.8708,0.871,0.8712,0,0,0,0,0,0,0,0,0,0,0,0,0,0.8602,0.8604,0.8678,0.8679,0.8679,0.8706,0.8707,0.8707,0.8681,0.8679,0.8678,0.8677,0.8707,0.871,0.8712,0,0,0,0,0,0,0,0,0,0,0,0,0,0.8634,0.8604,0.8678,0.8669,0.8668,0.8706,0.8707,0.8707,0.8681,0.8679,0.8678,0.8676,0.8707,0.8709,0.8712,0.8761,0,0,0.872,0.8721,0,0,0,0,0,0,0,0,0.8632,0.8636,0.867,0.867,0.8669,0.8688,0.8691,0.8725,0.8681,0.8676,0.8677,0.8676,0.8703,0.8706,0.8715,0.8762,0.8764,0.8721,0.8722,0.8723,0.8724,0,0,0,0,0,0,0,0.863,0.8635,0.8689,0.867,0.867,0.8664,0.8666,0.8698,0.8698,0.8677,0.8675,0.8678,0.8702,0.8712,0.8715,0.8764,0.872,0.8723,0.8725,0.8726,0.8853,0.8854,0,0,0,0,0,0,0.8628,0.8633,0.8688,0.869,0.8646,0.8666,0.8669,0.8684,0.8698,0.8698,0.868,0.8677,0.8708,0.8712,0.8716,0.8774,0.8723,0.8726,0.8727,0.8851,0.8853,0.8855,0,0,0,0,0,0,0.8627,0.8633,0.8687,0.8661,0.8668,0.8669,0.8686,0.8685,0.8695,0.87,0.87,0.8689,0.8707,0.8712,0.875,0.8774,0.8727,0.873,0.8849,0.8851,0.8854,0.889,0,0,0,0,0,0,0.8625,0.8633,0.8651,0.8662,0.8669,0.872,0.8687,0.8687,0.8699,0.8696,0.8709,0.871,0.8706,0.8746,0.8752,0.8777,0.8732,0.8847,0.885,0.8853,0.8886,0.8893,0.8899,0,0,0,0,0,0.8622,0.8661,0.8652,0.8659,0.8692,0.8722,0.8726,0.872,0.8702,0.872,0.8723,0.871,0.8771,0.875,0.8757,0.8783,0.8845,0.8849,0.8853,0.8884,0.8892,0.8899,0,0,0,0,0,0,0.8654,0.8662,0.8653,0.8696,0.8708,0.8717,0.874,0.8729,0.8748,0.8744,0.8737,0.874,0.8779,0.8785,0.8762,0.8831,0.8805,0.881,0.8826,0.8834,0.884,0.8838,0.8734,0,0,0,0,0,0.8666,0.8689,0.8695,0.8732,0.8739,0.8739,0.8751,0.8746,0.8759,0.8764,0.877,0.8783,0.8805,0.882,0.884,0.8887,0.8889,0.8909,0.8915,0.892,0.8925,0.895,0.8958,0.8868,0.8868,0.8868,0,0,0.8691,0.8698,0.8713,0.8739,0.8748,0.8772,0.8743,0.877,0.8788,0.8768,0.8803,0.8808,0.8822,0.8865,0.8883,0.8871,0.8951,0.8925,0.8929,0.8931,0.8955,0.8963,0.8971,0.887,0.887,0.8869,0,0,0.8749,0.8757,0.8789,0.8798,0.8811,0.8811,0.8819,0.8829,0.8831,0.8867,0.8852,0.8873,0.8912,0.8922,0.8932,0.8994,0.8982,0.9001,0.9034,0.9059,0.9066,0.9072,0.9093,0.9101,0.9006,0.9006,0.9006,0,0.8778,0.8814,0.8807,0.8834,0.8846,0.8828,0.8861,0.887,0.889,0.8899,0.8884,0.8931,0.8939,0.8983,0.8998,0.9008,0.9016,0.8999,0.9065,0.9071,0.9077,0.9098,0.9106,0.9008,0.9008,0.9008,0.9007,0,0.8849,0.8874,0.8898,0.8917,0.8932,0.8962,0.8959,0.8975,0.8968,0.8969,0.9005,0.9015,0.9036,0.9047,0.9041,0.909,0.9081,0.9066,0.904,0.9088,0.9107,0.9115,0.9011,0.901,0.901,0.9009,0,0,0.8928,0.8942,0.8951,0.8959,0.8973,0.8992,0.9021,0.9042,0.9055,0.907,0.9094,0.9127,0.9112,0.9124,0.9119,0.914,0.9188,0.9122,0.9122,0.9134,0.9242,0.9253,0.9262,0.918,0.9181,0.9183,0.9241,0,0.8986,0.9036,0.903,0.9078,0.9101,0.9084,0.911,0.9121,0.9123,0.9143,0.9145,0.9168,0.9147,0.9154,0.9175,0.9178,0.9209,0.9174,0.9202,0.9203,0.9199,0.9272,0.9284,0.9339,0.9248,0.9249,0.925,0,0.906,0.9076,0.9126,0.9136,0.9145,0.9168,0.9187,0.9206,0.9218,0.9218,0.9231,0.9222,0.9252,0.9225,0.9265,0.9241,0.9252,0.9256,0.9258,0.926,0.923,0.9276,0.9356,0.9364,0.9262,0.9261,0.926,0,0.9112,0.9146,0.918,0.9188,0.92,0.9217,0.9223,0.9233,0.9246,0.9263,0.9271,0.9291,0.9301,0.9317,0.9314,0.9295,0.9355,0.9328,0.9355,0.9355,0.9369,0.9368,0.9451,0.9377,0.9377,0.9377,0.9376,0,0.9177,0.9208,0.9204,0.9225,0.9259,0.9253,0.9287,0.9291,0.9301,0.9322,0.9309,0.933,0.9325,0.9345,0.9343,0.9376,0.9382,0.9382,0.9381,0.9383,0.9383,0.939,0.9386,0.9379,0.9378,0.9378,0.9377,0,0.924,0.9238,0.9275,0.9283,0.9286,0.9311,0.9318,0.9338,0.9339,0.9366,0.9373,0.9374,0.9397,0.9396,0.9422,0.9421,0.9462,0.9457,0.9458,0.9456,0.9484,0.9481,0.9574,0.9586,0.9505,0.9505,0.9506,0,0.9281,0.9305,0.9316,0.9329,0.9336,0.9358,0.937,0.9365,0.9379,0.9394,0.9412,0.9435,0.9452,0.949,0.9494,0.9514,0.9509,0.954,0.9512,0.9512,0.9508,0.9507,0.9509,0.9545,0.9546,0.9547,0.9548,0,0.9354,0.9352,0.9371,0.939,0.9405,0.942,0.9433,0.9445,0.9441,0.9457,0.948,0.9494,0.9521,0.9543,0.9562,0.9568,0.9557,0.9556,0.9564,0.9566,0.9565,0.9565,0.9472,0.9554,0.9554,0.9553,0.9553,0.9552,0.9407,0.9427,0.9438,0.9459,0.9468,0.9481,0.95,0.9503,0.9522,0.9543,0.9539,0.9565,0.9577,0.9601,0.961,0.963,0.9619,0.963,0.9632,0.9635,0.9638,0.9562,0.9634,0.9634,0.9633,0.9633,0.9633,0,0.9479,0.9485,0.9505,0.9523,0.954,0.9528,0.9542,0.9557,0.958,0.9592,0.9609,0.9636,0.9657,0.9662,0.9683,0.9698,0.9694,0.9704,0.9702,0.9704,0.9647,0.9638,0.9707,0.9707,0.9707,0.9707,0.9707,0.9707,0.9518,0.9551,0.9551,0.9588,0.9594,0.9619,0.9628,0.964,0.9649,0.9679,0.9697,0.97,0.9709,0.973,0.9749,0.9749,0.9757,0.9769,0.9768,0.9715,0.9708,0.9701,0.9692,0.9771,0.9771,0.9823,0.9823,0.9824]}]]